View from above orbital plane
|
View from above satellite
|
Ground track
|
The orbit data is extracted from the following two-line orbital elements,
1 25544U 98067A 21058.08383026 .00016717 00000-0 10270-3 0 9115
2 25544 51.6452 167.3135 0003419 51.3257 308.8198 15.49013166 31525
Epoch (UTC): | 27 February 2021 02:00:42 |
Eccentricity: | 0.0003419 |
inclination: | 51.6452° |
perigee height: | 417 km |
apogee height: | 422 km |
right ascension of ascending node: | 167.3135° |
argument of perigee: | 51.3257° |
revolutions per day: | 15.49013166 |
mean anomaly at epoch: | 308.8198° |
orbit number at epoch: | 3152 |
The dashed part of the orbit path shows where the satellite is in the earth's shadow,
|
|